TimeEDT,TemperatureF,Dew PointF,Humidity,Sea Level PressureIn,VisibilityMPH,Wind Direction,Wind SpeedMPH,Gust SpeedMPH,PrecipitationIn,Events,Conditions,WindDirDegrees,DateUTC
12:15 AM,64.4,64.4,100,30.15,7.0,Calm,Calm,-,N/A,,Unknown,0,2013-08-20 04:15:00
12:35 AM,62.6,62.6,100,30.15,5.0,Calm,Calm,-,N/A,,Unknown,0,2013-08-20 04:35:00
12:55 AM,62.6,62.6,100,30.15,7.0,Calm,Calm,-,N/A,,Unknown,0,2013-08-20 04:55:00
1:15 AM,60.8,60.8,100,30.15,5.0,Calm,Calm,-,N/A,,Unknown,0,2013-08-20 05:15:00
1:35 AM,60.8,60.8,100,30.15,5.0,Calm,Calm,-,N/A,,Unknown,0,2013-08-20 05:35:00
1:55 AM,60.8,60.8,100,30.15,1.2,Calm,Calm,-,N/A,,Unknown,0,2013-08-20 05:55:00
2:15 AM,60.8,60.8,100,30.15,5.0,Calm,Calm,-,N/A,,Unknown,0,2013-08-20 06:15:00
2:35 AM,60.8,60.8,100,30.15,4.0,Calm,Calm,-,N/A,,Unknown,0,2013-08-20 06:35:00
2:55 AM,59.0,59.0,100,30.15,5.0,Calm,Calm,-,N/A,,Unknown,0,2013-08-20 06:55:00
3:15 AM,59.0,59.0,100,30.15,0.5,Calm,Calm,-,N/A,,Unknown,0,2013-08-20 07:15:00
3:35 AM,59.0,59.0,100,30.15,0.5,Calm,Calm,-,N/A,,Unknown,0,2013-08-20 07:35:00
3:55 AM,59.0,59.0,100,30.15,1.0,Calm,Calm,-,N/A,,Unknown,0,2013-08-20 07:55:00
4:15 AM,57.2,57.2,100,30.15,3.0,Calm,Calm,-,N/A,,Unknown,0,2013-08-20 08:15:00
4:35 AM,57.2,57.2,100,30.15,2.5,Calm,Calm,-,N/A,,Unknown,0,2013-08-20 08:35:00
4:55 AM,57.2,57.2,100,30.16,7.0,Calm,Calm,-,N/A,,Unknown,0,2013-08-20 08:55:00
5:15 AM,57.2,57.2,100,30.17,10.0,Calm,Calm,-,N/A,,Unknown,0,2013-08-20 09:15:00
5:35 AM,57.2,57.2,100,30.17,10.0,Calm,Calm,-,N/A,,Unknown,0,2013-08-20 09:35:00
5:55 AM,57.2,57.2,100,30.18,10.0,Calm,Calm,-,N/A,,Unknown,0,2013-08-20 09:55:00
6:15 AM,57.2,57.2,100,30.19,10.0,Calm,Calm,-,N/A,,Unknown,0,2013-08-20 10:15:00
6:35 AM,55.4,55.4,100,30.20,10.0,Calm,Calm,-,N/A,,Unknown,0,2013-08-20 10:35:00
6:55 AM,57.2,57.2,100,30.21,10.0,Calm,Calm,-,N/A,,Unknown,0,2013-08-20 10:55:00
7:15 AM,57.2,57.2,100,30.21,10.0,Calm,Calm,-,N/A,,Unknown,0,2013-08-20 11:15:00
7:35 AM,59.0,59.0,100,30.22,10.0,Calm,Calm,-,N/A,,Unknown,0,2013-08-20 11:35:00
7:55 AM,60.8,60.8,100,30.22,7.0,Calm,Calm,-,N/A,,Unknown,0,2013-08-20 11:55:00
8:15 AM,62.6,62.6,100,30.22,7.0,Calm,Calm,-,N/A,,Unknown,0,2013-08-20 12:15:00
8:35 AM,62.6,62.6,100,30.22,10.0,Calm,Calm,-,N/A,,Unknown,0,2013-08-20 12:35:00
8:55 AM,64.4,64.4,100,30.22,10.0,Calm,Calm,-,N/A,,Unknown,0,2013-08-20 12:55:00
9:15 AM,66.2,64.4,94,30.23,10.0,Calm,Calm,-,N/A,,Unknown,0,2013-08-20 13:15:00
9:35 AM,66.2,66.2,100,30.23,10.0,SW,3.5,-,N/A,,Unknown,230,2013-08-20 13:35:00
9:55 AM,69.8,66.2,88,30.23,10.0,SSW,4.6,-,N/A,,Unknown,210,2013-08-20 13:55:00
10:15 AM,69.8,66.2,88,30.24,10.0,SSW,3.5,-,N/A,,Unknown,210,2013-08-20 14:15:00
10:35 AM,71.6,66.2,83,30.24,10.0,Calm,Calm,-,N/A,,Unknown,0,2013-08-20 14:35:00
10:55 AM,71.6,66.2,83,30.24,10.0,Calm,Calm,-,N/A,,Unknown,0,2013-08-20 14:55:00
11:15 AM,73.4,66.2,78,30.24,10.0,Calm,Calm,-,N/A,,Unknown,0,2013-08-20 15:15:00
11:35 AM,75.2,66.2,73,30.23,10.0,West,4.6,-,N/A,,Unknown,260,2013-08-20 15:35:00
11:55 AM,75.2,66.2,73,30.23,10.0,WSW,3.5,-,N/A,,Unknown,250,2013-08-20 15:55:00
12:15 PM,75.2,60.8,61,30.23,10.0,Calm,Calm,-,N/A,,Unknown,0,2013-08-20 16:15:00
12:35 PM,77.0,59.0,54,30.23,10.0,NNE,3.5,-,N/A,,Unknown,20,2013-08-20 16:35:00
12:55 PM,77.0,60.8,57,30.23,10.0,WNW,6.9,-,N/A,,Unknown,300,2013-08-20 16:55:00
1:15 PM,78.8,59.0,51,30.23,10.0,Calm,Calm,-,N/A,,Unknown,0,2013-08-20 17:15:00
1:35 PM,78.8,60.8,54,30.22,10.0,Calm,Calm,-,N/A,,Unknown,0,2013-08-20 17:35:00
1:55 PM,77.0,60.8,57,30.22,10.0,Calm,Calm,-,N/A,,Unknown,0,2013-08-20 17:55:00
2:15 PM,78.8,55.4,44,30.22,10.0,NW,3.5,-,N/A,,Unknown,310,2013-08-20 18:15:00
2:35 PM,78.8,57.2,47,30.21,10.0,NNW,3.5,-,N/A,,Unknown,340,2013-08-20 18:35:00
2:55 PM,80.6,59.0,48,30.21,10.0,WNW,8.1,-,N/A,,Unknown,300,2013-08-20 18:55:00
3:15 PM,80.6,59.0,48,30.20,10.0,NW,3.5,-,N/A,,Unknown,320,2013-08-20 19:15:00
3:35 PM,78.8,59.0,51,30.19,10.0,WNW,4.6,-,N/A,,Unknown,290,2013-08-20 19:35:00
3:55 PM,80.6,59.0,48,30.19,10.0,NNW,3.5,-,N/A,,Unknown,340,2013-08-20 19:55:00
4:15 PM,78.8,57.2,47,30.18,10.0,NW,3.5,-,N/A,,Unknown,310,2013-08-20 20:15:00
4:35 PM,80.6,59.0,48,30.18,10.0,WNW,5.8,-,N/A,,Unknown,300,2013-08-20 20:35:00
4:55 PM,80.6,60.8,51,30.18,10.0,WNW,3.5,-,N/A,,Unknown,300,2013-08-20 20:55:00
5:15 PM,80.6,60.8,51,30.18,10.0,NW,4.6,-,N/A,,Unknown,320,2013-08-20 21:15:00
5:35 PM,80.6,60.8,51,30.18,10.0,WNW,5.8,-,N/A,,Unknown,300,2013-08-20 21:35:00
5:55 PM,78.8,60.8,54,30.18,10.0,WNW,4.6,-,N/A,,Unknown,300,2013-08-20 21:55:00
6:15 PM,78.8,60.8,54,30.18,10.0,NNW,3.5,-,N/A,,Unknown,330,2013-08-20 22:15:00
6:35 PM,78.8,60.8,54,30.17,10.0,Calm,Calm,-,N/A,,Unknown,0,2013-08-20 22:35:00
6:55 PM,77.0,60.8,57,30.17,10.0,Calm,Calm,-,N/A,,Unknown,0,2013-08-20 22:55:00
7:15 PM,77.0,62.6,61,30.18,10.0,Calm,Calm,-,N/A,,Unknown,0,2013-08-20 23:15:00
7:35 PM,75.2,64.4,69,30.18,10.0,Calm,Calm,-,N/A,,Unknown,0,2013-08-20 23:35:00
7:55 PM,71.6,66.2,83,30.18,10.0,Calm,Calm,-,N/A,,Unknown,0,2013-08-20 23:55:00
8:15 PM,69.8,66.2,88,30.19,10.0,Calm,Calm,-,N/A,,Unknown,0,2013-08-21 00:15:00
8:35 PM,68.0,66.2,94,30.19,10.0,Calm,Calm,-,N/A,,Unknown,0,2013-08-21 00:35:00
8:55 PM,66.2,66.2,100,30.20,10.0,Calm,Calm,-,N/A,,Unknown,0,2013-08-21 00:55:00
9:15 PM,66.2,64.4,94,30.21,10.0,Calm,Calm,-,N/A,,Unknown,0,2013-08-21 01:15:00
9:35 PM,64.4,64.4,100,30.21,10.0,Calm,Calm,-,N/A,,Unknown,0,2013-08-21 01:35:00
9:55 PM,64.4,64.4,100,30.22,10.0,Calm,Calm,-,N/A,,Unknown,0,2013-08-21 01:55:00
10:15 PM,64.4,64.4,100,30.22,10.0,Calm,Calm,-,N/A,,Unknown,0,2013-08-21 02:15:00
10:35 PM,62.6,62.6,100,30.22,10.0,Calm,Calm,-,N/A,,Unknown,0,2013-08-21 02:35:00
10:55 PM,62.6,62.6,100,30.22,10.0,Calm,Calm,-,N/A,,Unknown,0,2013-08-21 02:55:00
11:15 PM,62.6,62.6,100,30.22,10.0,Calm,Calm,-,N/A,,Unknown,0,2013-08-21 03:15:00
11:35 PM,60.8,60.8,100,30.22,7.0,Calm,Calm,-,N/A,,Unknown,0,2013-08-21 03:35:00
11:55 PM,60.8,60.8,100,30.22,7.0,Calm,Calm,-,N/A,,Unknown,0,2013-08-21 03:55:00